Portada
METAR-TAF:

METAR-TAF

Aeroports :

Waterville Robert LaFleur Airport

Waterville, Maine, Estats Units d'Amèrica

latitud: 44-32N, longitud: 069-41W, altitud: 101 m

Observació

L'informe es va fer fa 36 minuts, a les 19:56 UTC
Vent 9 kt del Oest/Nord-Oest
Temperatura -5°C
Humitat 58%
Pressió 1021 hPa
Visibilitat: 16.1 km
Escasses núvols a una alçada de 4300 ft

METAR: KWVL 131956Z AUTO 29009KT 10SM FEW043 M05/M12 A3014 RMK AO2 SLP240 T10501122 FZRANO

Hora: 15:32 (20:32 UTC)


TAF: manca

Observacions i pronòstics meteorològics de més de 4000 aeroports (METAR i TAF).

Les estacions disponibles són els punts grocs i vermells al mapa.

Posi el ratolí al punt desitjat per veure el nom de l'estació.

Feu clic per veure les observacions i els pronòstics meteorològics.

Per canviar el mapa: feu clic els botons verds amb una creu de color negre per apropar; al botó verd amb un guió per allunyar la imatge; o en les fletxes verdes per a mapes adjacents.


METAR-TAF: